Regional Weather Roundup
Issued by NWS

Home | Current Version | Previous Version | Text Only | Print | Product List | Glossary On
Versions: 1 2 3 4 5 6 7 8 9 10 11 12 13 14 15 16 17 18 19 20 21 22 23 24 25 26 27 28 29 30 31 32 33 34 35 36 37 38 39 40 41 42 43 44 45 46 47 48 49 50
000
ASUS43 KMKX 040700
RWRWI

WISCONSIN REGIONAL WEATHER ROUNDUP
NATIONAL WEATHER SERVICE MILWAUKEE/SULLIVAN WI
200 AM CDT MON MAY 04 2015

NOTE: "FAIR" INDICATES FEW OR NO CLOUDS BELOW 12,000 FEET WITH NO
SIGNIFICANT WEATHER AND/OR OBSTRUCTIONS TO VISIBILITY.

WIZ001-002-006>008-014>016-023>028-040800-
NORTHWEST WISCONSIN

CITY           SKY/WX    TMP DP  RH WIND       PRES   REMARKS
SUPERIOR ARPT  CLEAR     53  35  49 N8        29.98R
ASHLAND        MOCLDY    51  37  58 NW8       29.98R
HAYWARD        MOCLDY    44  41  89 CALM      29.98R
SIREN          CLEAR     43  40  90 NW5       30.00R
CUMBERLAND     MOCLDY    50  43  76 NW5       29.98R
RICE LAKE      MOCLDY    53  45  73 NW3       29.98R
CHETEK         MOCLDY    53  50  90 CALM      29.96R
LADYSMITH      CLOUDY    53  50  89 NW6       29.96R
EAU CLAIRE     NOT AVBL
MENOMONIE      MOCLDY    56  52  86 W7        29.96R
NEW RICHMOND   CLEAR     51  44  77 N3        29.98R
OSCEOLA        CLEAR     48  48  99 CALM      30.01R
$$

WIZ003>005-009-010-017-018-040800-
NORTH CENTRAL WISCONSIN

CITY           SKY/WX    TMP DP  RH WIND       PRES   REMARKS
MANITOWISH WTR CLOUDY    50  49  95 CALM      29.93S
ARBOR VITAE    CLOUDY    52  48  85 CALM      29.93S
WOODRUFF       CLOUDY    52  48  85 CALM      29.93S
RHINELANDER    CLOUDY    53  49  86 NW6       29.93R
EAGLE RIVER    CLOUDY    52  51  97 CALM      29.92R
LAND O LAKES   CLOUDY    53  50  91 CALM      29.93S
PHILLIPS       PTCLDY    50  49  93 NW5       29.94R
TOMAHAWK       CLOUDY    49  48  97 CALM      29.92R FOG
MEDFORD        CLOUDY    53  50  92 N3        29.92R
MERRILL        CLOUDY    53  52  97 N3        29.90R
$$

WIZ029-030-035-036-043>047-040800-
CENTRAL WISCONSIN

CITY           SKY/WX    TMP DP  RH WIND       PRES   REMARKS
WAUSAU         CLOUDY    57  55  93 NW7       29.88R
MOSINEE        CLOUDY    54  54 100 CALM      29.90R
MARSHFIELD     CLOUDY    56  32  40 NW7       29.91R
STEVENS POINT  CLOUDY    56  55  95 CALM      29.89R
WAUPACA        LGT RAIN  60  59  96 CALM      29.89F
WAUTOMA        NOT AVBL
WISC RAPIDS    CLOUDY    57  55  93 N3        29.90R
CAMP DOUGLAS   CLOUDY    59  59 100 S6        29.85R
$$

WIZ011>013-019>022-031-037>040-048>050-040800-
NORTHEAST WISCONSIN

CITY           SKY/WX    TMP DP  RH WIND       PRES   REMARKS
ANTIGO         CLOUDY    54  53  97 N8        29.88S
SHAWANO        LGT RAIN  60  58  91 S7        29.86F
OCONTO         CLOUDY    58  58 100 SE3       29.86F
STURGEON BAY   CLOUDY    57  54  88 SE6       29.89F
GREEN BAY      LGT RAIN  60  58  92 SE5       29.89S
MANITOWOC      RAIN      57  55  94 NE5       29.89S FOG
APPLETON       RAIN      59  55  88 E6        29.90F
CLINTONVILLE   LGT RAIN  59  55  88 S6        29.88S
OSHKOSH        RAIN      60  56  86 N10       29.88F
$$

WIZ032>034-041-042-053>061-040800-
SOUTHWEST WISCONSIN

CITY           SKY/WX    TMP DP  RH WIND       PRES   REMARKS
LA CROSSE      CLOUDY    60  56  86 N6        29.91R
SPARTA         CLOUDY    58  57  96 NW7       29.90R
VIROQUA        CLOUDY    56  56 100 W5        29.91R
BOSCOBEL       CLOUDY    60  57  89 CALM      29.90F
PRAIRIE DU CHI CLOUDY    57  56  96 CALM      29.90R
PLATTEVILLE    CLOUDY    58  56  94 NE12      29.90F
$$

WIZ056-057-062-063-064-067-068-040800-
SOUTH CENTRAL WISCONSIN

CITY           SKY/WX    TMP DP  RH WIND       PRES   REMARKS
REEDSBURG      LGT RAIN  57  56  99 SE6       29.88F
BARABOO/DELLS  NOT AVBL
LONE ROCK      NOT AVBL
MINERAL POINT  CLOUDY    59  55  88 E7        29.92F
MADISON        LGT RAIN  59  56  89 CALM      29.91F
MIDDLETON      CLOUDY    59  57  94 SE3       29.93F
WATERTOWN      TSTM      60  60 100 W7        29.95R
MONROE         HVY RAIN  57  55  94 N10       29.96R
JANESVILLE     RAIN      61  55  82 N14       29.94
$$

WIZ051-052-058>065-066-070>072-040800-
SOUTHEAST WISCONSIN

CITY           SKY/WX    TMP DP  RH WIND       PRES   REMARKS
MILWAUKEE      CLOUDY    66  51  58 W18G26    29.91R
WAUKESHA       CLOUDY    61  52  72 W9        29.91R
MILWAUKEE/TIMM CLOUDY    64  50  59 W12G24    29.89R
RACINE         CLOUDY    66  51  58 SW15      29.88S
BURLINGTON     CLOUDY    61  52  73 W12G17    29.90R
KENOSHA        CLOUDY    67  52  58 SW13      29.88R
FOND DU LAC    LGT RAIN  61  57  87 NW7       29.89R
SHEBOYGAN      CLOUDY    58  55  90 E6        29.88S
WEST BEND      LGT RAIN  61  54  77 W9        29.89S
JUNEAU         CLOUDY    60  56  89 W6        29.93R
$$

LSZ147-162-040800-
LAKE SUPERIOR

STATION/POSITION TIME  TEMP    WIND        PRES    WAVE
                       AIR SEA DIR/SP/G            HT/PER
                 (UTC) (F)     (DEG/KT/KT) (MB)    (FT/S)
W MID LAKE BUOY  0550   43 35  220/  8/  8 1013.2R   1/ 3
DEVILS ISLAND    0600   50     290/ 10/ 12 1014.1R
PORT WING        0600   47     210/  3/  5 1014.9R
SAXON HARBOR     0640   48        CALM     1013.9R
$$

LMZ867-665-643>646-040800-
LAKE MICHIGAN

STATION/POSITION TIME  TEMP    WIND        PRES    WAVE
                       AIR SEA DIR/SP/G            HT/PER
                 (UTC) (F)     (DEG/KT/KT) (MB)    (FT/S)
CHAMBERS ISLAND  0600   56     180/  2/  4 1011.9S
NORTHPORT PIER   0600   55     200/  5/ 10 1011.5F
SISTER BAY       0602   54     160/  8/ 10   N/A
KEWAUNEE LAKESHO 0618   60      10/  7/ 11 1011.0F
SHEBOYGAN LAKESH 0600   53      10/ 19/ 21 1013.0R
PORT WASHINGTON  0630          280/  6/ 12 1012.2R
ATWATER BUOY     0600   51     160/  8/ 10 1011.8F
MILWAUKEE LAKESH 0600   65     220/ 12/ 16   N/A
KENOSHA   LAKESH 0600          210/ 11/ 16 1011.5F
$$

TC  - TEMPERATURE IN CELSIUS
VSB - VISIBILITY IN STATUTE MILES
WCI - WIND CHILL INDEX
HX  - HEAT INDEX



USA.gov is the U.S. government's official web portal to all federal, state and local government web resources and services.